This is the latest recevied weather packets stored in our database for station/object DJ4RO-13. If no packets are shown the sender has not sent any weather packets the latest 10 day(s).
| Time | Temp. | Humidity | Pressure | Rain* | Wind** | Luminosity | Snow |
|---|---|---|---|---|---|---|---|
| 1777357233 | 7.78° C | 51% | 1032 hPa | 0 mm | - | 223 W/m² | - |
| 1777356933 | 7.78° C | 52% | 1031.7 hPa | 0 mm | - | 215 W/m² | - |
| 1777356621 | 7.22° C | 52% | 1031.7 hPa | 0 mm | - | 201 W/m² | - |
| 1777356381 | 7.78° C | 53% | 1031.8 hPa | 0 mm | - | 191 W/m² | - |
| 1777356061 | 7.22° C | 54% | 1031.7 hPa | 0 mm | - | 179 W/m² | - |
| 1777355741 | 7.22° C | 54% | 1031.8 hPa | 0 mm | - | 164 W/m² | - |
| 1777355421 | 6.67° C | 53% | 1031.6 hPa | 0 mm | - | 154 W/m² | - |
| 1777354781 | 6.67° C | 55% | 1031.3 hPa | 0 mm | - | 132 W/m² | - |
| 1777354461 | 5.56° C | 57% | 1031.5 hPa | 0 mm | - | 122 W/m² | - |
| 1777354141 | 5.56° C | 57% | 1031.5 hPa | 0 mm | - | 111 W/m² | - |
| 1777353821 | 5.56° C | 58% | 1031.5 hPa | 0 mm | - | 101 W/m² | - |
| 1777353501 | 5.56° C | 58% | 1031.7 hPa | 0 mm | - | 93 W/m² | - |
| 1777353181 | 5° C | 61% | 1031.7 hPa | 0 mm | - | 84 W/m² | - |
| 1777352861 | 3.89° C | 63% | 1031.7 hPa | 0 mm | - | 77 W/m² | - |
| 1777352541 | 3.33° C | 67% | 1031.5 hPa | 0 mm | - | 71 W/m² | - |
| 1777352221 | 2.78° C | 68% | 1031.7 hPa | 0 mm | - | 30 W/m² | - |
| 1777351901 | 2.22° C | 70% | 1031.6 hPa | 0 mm | - | 28 W/m² | - |
| 1777351582 | 2.22° C | 71% | 1031.5 hPa | 0 mm | - | 27 W/m² | - |
| 1777351261 | 2.22° C | 72% | 1031.5 hPa | 0 mm | - | 27 W/m² | - |
| 1777350941 | 1.67° C | 75% | 1031.2 hPa | 0 mm | - | 28 W/m² | - |
| 1777350621 | 1.11° C | 76% | 1031.3 hPa | 0 mm | - | 21 W/m² | - |
| 1777350301 | 1.11° C | 76% | 1031.3 hPa | 0 mm | - | 19 W/m² | - |
| 1777349965 | 1.11° C | 76% | 1031.2 hPa | 0 mm | - | 17 W/m² | - |
| 1777349645 | 1.11° C | 76% | 1031.2 hPa | 0 mm | - | 15 W/m² | - |
| 1777349325 | 1.11° C | 75% | 1031.1 hPa | 0 mm | - | 12 W/m² | - |
* Rain latest hour (hover to see other rain measurements)
** Current wind speed in m/s (hover to see current wind gust speed)